Previsão horária em Abazivka

Hoje, 29 Setembro, Terça-feira

Tempo Temperatura Precipitação Vento Pressão Humidade
00:00 +17°C° 0 mm 5 m/s 754 mmHg 50%
01:00 +16°C° 0 mm 5 m/s 754 mmHg 48%
02:00 +16°C° 0 mm 5 m/s 754 mmHg 47%
03:00 +15°C° 0 mm 5 m/s 754 mmHg 46%
04:00 +15°C° 0 mm 5 m/s 754 mmHg 46%
05:00 +15°C° 0 mm 5 m/s 753 mmHg 46%
06:00 +15°C° 0 mm 6 m/s 753 mmHg 47%
07:00 +16°C° 0 mm 6 m/s 753 mmHg 48%
08:00 +16°C° 0 mm 7 m/s 753 mmHg 49%
09:00 +17°C° 0 mm 6 m/s 753 mmHg 47%
10:00 +19°C° 0 mm 6 m/s 752 mmHg 46%
11:00 +20°C° 0 mm 6 m/s 752 mmHg 45%
12:00 +21°C° 0 mm 6 m/s 752 mmHg 44%
13:00 +22°C° 0 mm 6 m/s 751 mmHg 43%
14:00 +23°C° 0 mm 6 m/s 751 mmHg 42%
15:00 +22°C° 0.2 mm 6 m/s 751 mmHg 48%
16:00 +20°C° 0.2 mm 7 m/s 750 mmHg 55%
17:00 +18°C° 0.2 mm 7 m/s 750 mmHg 61%
18:00 +18°C° 0.6 mm 7 m/s 750 mmHg 57%
19:00 +18°C° 0.6 mm 7 m/s 750 mmHg 52%
20:00 +18°C° 0.6 mm 7 m/s 749 mmHg 48%
21:00 +17°C° 0 mm 7 m/s 749 mmHg 46%
22:00 +17°C° 0 mm 7 m/s 748 mmHg 44%
23:00 +17°C° 0 mm 7 m/s 748 mmHg 42%

Amanhã, 30 Setembro, Quarta-feira

Tempo Temperatura Precipitação Vento Pressão Humidade
00:00 +17°C° 0 mm 7 m/s 747 mmHg 42%
01:00 +17°C° 0 mm 7 m/s 747 mmHg 42%
02:00 +17°C° 0 mm 8 m/s 747 mmHg 41%
03:00 +17°C° 0 mm 8 m/s 747 mmHg 43%
04:00 +16°C° 0 mm 8 m/s 746 mmHg 45%
05:00 +16°C° 0 mm 8 m/s 746 mmHg 46%
06:00 +15°C° 0 mm 9 m/s 746 mmHg 46%
07:00 +15°C° 0 mm 9 m/s 746 mmHg 45%
08:00 +15°C° 0 mm 9 m/s 746 mmHg 44%
09:00 +16°C° 0 mm 9 m/s 746 mmHg 43%
10:00 +17°C° 0 mm 9 m/s 746 mmHg 42%
11:00 +18°C° 0 mm 9 m/s 746 mmHg 41%
12:00 +17°C° 0.5 mm 9 m/s 746 mmHg 47%
13:00 +17°C° 0.5 mm 8 m/s 746 mmHg 53%
14:00 +16°C° 0.5 mm 7 m/s 746 mmHg 60%
15:00 +15°C° 1.9 mm 7 m/s 746 mmHg 63%
16:00 +15°C° 1.9 mm 7 m/s 746 mmHg 67%
17:00 +14°C° 1.9 mm 6 m/s 746 mmHg 70%
18:00 +15°C° 0.7 mm 7 m/s 746 mmHg 69%
19:00 +15°C° 0.7 mm 7 m/s 746 mmHg 68%
20:00 +15°C° 0.7 mm 7 m/s 746 mmHg 68%
21:00 +16°C° 0.1 mm 7 m/s 746 mmHg 65%
22:00 +16°C° 0.1 mm 7 m/s 746 mmHg 63%
23:00 +16°C° 0.1 mm 7 m/s 747 mmHg 61%

Depois de amanhã, 1 Outubro, Quinta-feira

Tempo Temperatura Precipitação Vento Pressão Humidade
00:00 +16°C° 0 mm 6 m/s 747 mmHg 62%
01:00 +15°C° 0 mm 6 m/s 747 mmHg 62%
02:00 +15°C° 0 mm 6 m/s 747 mmHg 63%
03:00 +15°C° 0 mm 6 m/s 748 mmHg 60%
04:00 +14°C° 0 mm 6 m/s 748 mmHg 57%
05:00 +14°C° 0 mm 6 m/s 748 mmHg 55%
06:00 +14°C° 0 mm 7 m/s 748 mmHg 54%
07:00 +14°C° 0 mm 7 m/s 749 mmHg 54%
08:00 +15°C° 0 mm 8 m/s 749 mmHg 54%
09:00 +16°C° 0 mm 8 m/s 749 mmHg 52%
10:00 +17°C° 0 mm 8 m/s 749 mmHg 50%
11:00 +18°C° 0 mm 8 m/s 749 mmHg 47%
12:00 +20°C° 0 mm 8 m/s 749 mmHg 47%
13:00 +20°C° 0 mm 8 m/s 749 mmHg 47%
14:00 +21°C° 0 mm 8 m/s 749 mmHg 47%
15:00 +20°C° 0 mm 7 m/s 749 mmHg 50%
16:00 +18°C° 0 mm 7 m/s 749 mmHg 54%
17:00 +17°C° 0 mm 6 m/s 749 mmHg 58%
18:00 +17°C° 0 mm 6 m/s 749 mmHg 55%
19:00 +16°C° 0 mm 5 m/s 749 mmHg 52%
20:00 +16°C° 0 mm 5 m/s 749 mmHg 50%
21:00 +16°C° 0 mm 5 m/s 749 mmHg 48%
22:00 +16°C° 0 mm 5 m/s 750 mmHg 47%
23:00 +16°C° 0 mm 6 m/s 750 mmHg 46%

2 Outubro, Sexta-feira

Tempo Temperatura Precipitação Vento Pressão Humidade
00:00 +15°C° 0 mm 6 m/s 750 mmHg 56%
01:00 +15°C° 0 mm 6 m/s 750 mmHg 66%
02:00 +14°C° 0 mm 6 m/s 750 mmHg 76%
03:00 +13°C° 0.2 mm 6 m/s 750 mmHg 75%
04:00 +13°C° 0.2 mm 6 m/s 750 mmHg 74%
05:00 +13°C° 0.2 mm 6 m/s 750 mmHg 73%
06:00 +13°C° 0 mm 6 m/s 751 mmHg 68%
07:00 +14°C° 0 mm 6 m/s 751 mmHg 63%
08:00 +14°C° 0 mm 6 m/s 751 mmHg 57%
09:00 +15°C° 0 mm 6 m/s 751 mmHg 55%
10:00 +16°C° 0 mm 6 m/s 751 mmHg 53%
11:00 +17°C° 0 mm 6 m/s 751 mmHg 51%
12:00 +19°C° 0 mm 6 m/s 751 mmHg 49%
13:00 +19°C° 0 mm 6 m/s 751 mmHg 47%
14:00 +20°C° 0 mm 6 m/s 751 mmHg 45%
15:00 +20°C° 0.1 mm 5 m/s 751 mmHg 49%
16:00 +19°C° 0.1 mm 4 m/s 751 mmHg 53%
17:00 +18°C° 0.1 mm 4 m/s 751 mmHg 57%
18:00 +17°C° 0.1 mm 5 m/s 751 mmHg 61%
19:00 +16°C° 0.1 mm 5 m/s 751 mmHg 66%
20:00 +16°C° 0.1 mm 6 m/s 752 mmHg 71%
21:00 +15°C° 0.2 mm 6 m/s 752 mmHg 74%
22:00 +15°C° 0.2 mm 5 m/s 752 mmHg 77%
23:00 +14°C° 0.2 mm 5 m/s 752 mmHg 80%

3 Outubro, Sábado

Tempo Temperatura Precipitação Vento Pressão Humidade
00:00 +14°C° 0.3 mm 4 m/s 752 mmHg 80%
01:00 +14°C° 0.3 mm 3 m/s 752 mmHg 79%
02:00 +13°C° 0.3 mm 3 m/s 752 mmHg 79%
03:00 +13°C° 0.1 mm 3 m/s 752 mmHg 80%
04:00 +13°C° 0.1 mm 3 m/s 752 mmHg 80%
05:00 +12°C° 0.1 mm 3 m/s 752 mmHg 80%
06:00 +13°C° 0.3 mm 3 m/s 752 mmHg 78%
07:00 +14°C° 0.3 mm 4 m/s 752 mmHg 77%
08:00 +15°C° 0.3 mm 4 m/s 752 mmHg 75%
09:00 +15°C° 0.2 mm 4 m/s 753 mmHg 72%
10:00 +17°C° 0.2 mm 4 m/s 753 mmHg 69%
11:00 +18°C° 0.2 mm 4 m/s 753 mmHg 67%
12:00 +19°C° 0.1 mm 4 m/s 753 mmHg 63%
13:00 +20°C° 0.1 mm 4 m/s 753 mmHg 59%
14:00 +21°C° 0.1 mm 4 m/s 753 mmHg 54%
15:00 +20°C° 0.7 mm 3 m/s 753 mmHg 60%
16:00 +19°C° 0.7 mm 3 m/s 752 mmHg 65%
17:00 +18°C° 0.7 mm 3 m/s 752 mmHg 70%
18:00 +18°C° 0.6 mm 3 m/s 753 mmHg 74%
19:00 +17°C° 0.6 mm 4 m/s 753 mmHg 78%
20:00 +15°C° 0.6 mm 4 m/s 753 mmHg 81%
21:00 +15°C° 0.1 mm 4 m/s 753 mmHg 83%
22:00 +15°C° 0.1 mm 4 m/s 753 mmHg 85%
23:00 +14°C° 0.1 mm 4 m/s 754 mmHg 86%

4 Outubro, Domingo

Tempo Temperatura Precipitação Vento Pressão Humidade
00:00 +14°C° 0 mm 4 m/s 754 mmHg 88%
01:00 +13°C° 0 mm 3 m/s 754 mmHg 89%
02:00 +13°C° 0 mm 3 m/s 754 mmHg 90%
03:00 +13°C° 0 mm 3 m/s 754 mmHg 88%
04:00 +13°C° 0 mm 3 m/s 754 mmHg 87%
05:00 +12°C° 0 mm 3 m/s 754 mmHg 85%
06:00 +13°C° 0 mm 3 m/s 754 mmHg 79%
07:00 +14°C° 0 mm 4 m/s 755 mmHg 73%
08:00 +15°C° 0 mm 4 m/s 755 mmHg 66%
09:00 +17°C° 0 mm 4 m/s 755 mmHg 62%
10:00 +18°C° 0 mm 4 m/s 755 mmHg 58%
11:00 +20°C° 0 mm 4 m/s 755 mmHg 54%
12:00 +20°C° 0 mm 3 m/s 755 mmHg 52%
13:00 +21°C° 0 mm 3 m/s 755 mmHg 50%
14:00 +21°C° 0 mm 3 m/s 755 mmHg 49%
15:00 +20°C° 0 mm 3 m/s 755 mmHg 52%
16:00 +19°C° 0 mm 3 m/s 755 mmHg 56%
17:00 +18°C° 0 mm 4 m/s 755 mmHg 59%
18:00 +17°C° 0 mm 4 m/s 756 mmHg 58%
19:00 +15°C° 0 mm 4 m/s 756 mmHg 57%
20:00 +14°C° 0 mm 4 m/s 756 mmHg 57%
21:00 +14°C° 0 mm 4 m/s 757 mmHg 56%
22:00 +13°C° 0 mm 4 m/s 757 mmHg 56%
23:00 +13°C° 0 mm 4 m/s 757 mmHg 56%
Mostrar mais